Погода в Джаяпуре

Индонезия     2°32′08″S   140°42′21″E
темп.,
°C
ветер,
м/с
пор.,
м/с
влажн.,
%
обл.,
%
осадки,
мм/ч
давл.,
гПа
погр.,
м
2 марта, вт
вт200:00+26зсз4684100 0.6 1009536
03:00+25зюз3586100 3.9 1008353
06:00+25ююз2284100 0.6 1009299
09:00+27з237999 0.6 1010438
12:00+29сз566754 0.0 1007936
15:00+28сз697230 0.0 10051077
18:00+27зсз6782100 0.9 1007680
21:00+26зсз568597 4.4 1009417
3 марта, ср
ср300:00+25зсз6888100 5.3 1009583
03:00+24зсз5893100 10.9 1008509
06:00+25зсз5690100 2.4 1010456
09:00+25зсз578998 7.7 1012647
12:00+26сз6888100 3.6 1008823
15:00+26сз6885100 5.3 1007829
18:00+25сз6892100 4.3 1008590
21:00+25сз7992100 14.2 1010574
4 марта, чт
чт400:00+25сз91393100 25.5 1010853
03:00+25зсз81191100 40.1 1008773
06:00+24зсз4692100 17.1 1010448
09:00+25з4691100 24.7 1012414
12:00+26з3582100 0.1 1009619
15:00+28сз6973100 0.3 1007955
18:00+26сз6980100 1.1 1009713
21:00+26зсз588487 2.6 1010624
5 марта, пт
пт500:00+25зюз3487100 0.6 1009456
03:00+25зюз3486100 0.9 1008410
06:00+24юз348559 2.1 1009242
09:00+28з256565 2.4 1011986
12:00+29сз7867100 0.0 10081053
15:00+29сз7106965 0.1 10061143
18:00+27сз69800 0.2 1008722
21:00+26зсз568529 0.7 1010548
6 марта, сб
сб600:00+26зсз468397 1.4 1009499
03:00+25з468499 2.0 1008458
06:00+25зюз3485100 0.8 1009353
09:00+28зсз3568100 1.2 1011974
12:00+29сз676898 0.2 1008972
15:00+28сз687196 0.2 1005985
18:00+27сз5780100 0.0 1007643
21:00+26зсз4683100 0.2 1009494